RH
3 4 3 5 8 11 13 10 11 12 13 14 11 9 9 8 8 8 8 8 8 11 11 9 10 8 9 7 20 35 30 32 36 39 47 47 47 48 47 49 46 41 38 34 34 35 36 35 34 35 35 34 35 36 39 41 40 40 39 40 39 37 36 35 33 31 29 30 33 32 29 25 22 20 18 16 15 16 18 18 19 19 20 22 23 22 23 23 25 26 27 29 28 28 30 32 35
4 7 6 7 11 13 14 12 13 13 14 13 10 9 8 7 7 7 7 9 9 10 10 9 8 7 8 7 15 27 26 28 30 36 41 41 48 50 47 49 43 38 38 35 34 35 36 35 35 35 35 33 33 35 37 40 40 40 40 40 40 39 37 36 33 32 30 32 35 35 33 29 24 21 18 16 15 16 18 20 21 21 21 23 24 23 24 25 27 27 28 29 29 28 29 32 35
5 10 11 9 11 13 15 16 13 11 13 12 10 12 9 9 8 7 8 9 9 8 8 8 7 9 12 18 25 30 34 35 33 35 37 38 45 48 46 47 43 38 37 35 34 35 36 36 36 36 33 32 32 33 36 39 40 40 41 41 42 40 39 37 34 32 31 33 36 36 35 32 27 21 19 17 16 17 18 21 22 22 22 24 25 26 28 29 30 30 29 29 29 28 29 30 33
5 9 12 10 11 13 14 15 13 9 10 10 10 11 9 11 9 7 8 8 9 7 7 6 8 13 20 31 37 38 40 41 39 37 37 37 39 43 44 45 45 40 37 34 33 36 36 37 38 35 31 30 31 32 35 38 38 39 41 42 43 42 40 38 35 33 32 34 36 36 34 33 29 23 19 18 18 17 19 22 25 25 24 25 27 29 32 33 34 34 31 29 28 28 28 29 31
6 9 12 10 13 16 13 13 11 9 7 7 9 9 9 10 9 8 8 8 9 7 8 5 8 19 26 33 39 40 41 40 41 39 39 41 39 41 42 44 47 43 39 33 33 36 37 38 37 32 30 30 30 31 33 36 36 39 42 43 44 43 42 40 37 34 32 34 35 34 33 32 29 25 21 19 19 20 22 25 28 27 26 28 29 31 33 34 36 36 33 30 28 28 29 29 30
7 10 11 10 15 17 16 14 11 10 8 7 9 9 9 9 9 10 9 10 9 8 9 6 10 28 36 35 39 41 39 38 39 39 41 43 41 42 44 45 45 41 38 36 36 37 38 38 34 31 30 30 30 29 31 33 35 39 41 43 45 45 43 41 38 35 33 33 33 32 32 31 29 27 24 22 22 22 25 29 31 31 32 32 33 35 34 35 37 38 36 30 27 28 29 29 29
9 12 11 9 13 15 16 15 11 11 9 8 8 8 8 9 9 9 10 10 11 11 10 9 12 28 39 37 40 41 39 39 39 42 44 45 45 46 45 43 41 38 38 41 40 38 38 36 32 31 30 30 29 28 29 32 36 38 41 43 45 46 44 42 39 36 34 31 31 31 32 31 32 32 28 26 27 27 28 31 35 36 38 40 41 40 38 39 41 39 35 30 28 28 30 30 31
10 13 14 11 11 12 12 10 9 10 9 9 8 8 9 9 9 8 9 9 12 14 13 16 13 22 38 38 40 42 41 41 41 44 48 51 53 52 48 43 42 43 44 46 43 40 38 35 32 31 31 30 29 29 30 32 35 38 41 43 45 46 45 43 40 37 34 31 32 32 34 34 35 37 33 30 31 32 33 34 38 39 42 46 47 44 42 44 42 37 34 31 29 30 31 32 32
11 15 16 13 12 12 12 10 9 8 8 9 7 9 9 9 9 8 9 8 13 15 13 18 14 20 36 38 40 42 43 43 43 47 51 55 55 53 51 47 47 49 49 48 44 40 38 33 31 32 32 31 30 30 30 31 34 38 41 43 45 47 46 44 41 38 34 32 35 37 40 40 39 39 35 33 33 36 37 37 41 44 46 48 48 46 45 42 38 36 35 33 31 31 33 33 34
12 16 17 15 12 12 14 14 11 8 8 8 8 9 9 9 9 8 8 8 16 20 16 17 13 19 31 37 41 42 44 47 48 52 54 55 54 52 51 50 49 50 49 47 42 39 36 32 31 32 32 32 31 31 31 31 33 36 38 42 45 47 46 45 42 38 35 36 40 44 46 46 43 37 33 34 33 37 40 41 45 48 48 48 48 47 44 41 37 37 37 35 32 31 32 32 35
13 14 15 14 12 12 13 13 11 10 9 8 7 9 9 8 8 8 9 10 17 22 21 17 14 22 30 36 42 43 47 50 51 55 57 56 53 52 52 50 49 48 47 46 42 38 35 32 31 32 32 32 32 32 31 30 31 33 36 40 44 46 46 45 41 38 38 41 46 48 49 49 44 35 32 33 33 37 43 46 50 51 50 48 47 46 44 41 39 38 37 36 34 33 33 33 36
14 13 12 10 11 13 11 10 11 11 11 8 7 10 9 9 9 9 13 17 20 22 20 15 18 28 32 37 44 47 51 52 52 55 58 57 53 52 51 48 46 45 44 43 40 37 36 33 33 33 32 33 33 32 30 29 29 30 33 38 42 44 45 43 40 38 42 47 51 50 49 48 43 36 32 34 36 41 46 50 53 52 51 49 47 45 43 43 40 39 38 37 37 36 35 36 38
15 14 15 13 11 12 10 9 10 11 12 9 9 10 10 9 9 10 13 18 21 22 18 15 23 32 37 42 47 50 53 54 55 57 57 55 53 53 50 46 43 42 41 40 38 38 36 34 34 33 33 33 32 31 29 28 27 29 32 37 40 42 43 41 40 42 45 51 52 50 48 48 45 39 36 37 40 44 47 51 53 53 52 48 46 45 44 43 43 41 40 40 41 41 40 39 39
14 13 18 18 14 12 10 8 10 11 12 10 9 10 10 10 10 10 10 13 20 26 23 20 27 36 42 44 46 50 53 56 57 57 56 53 54 53 50 45 40 40 40 36 35 37 36 34 33 33 34 33 32 31 30 29 28 29 33 36 39 41 41 41 42 45 48 51 52 49 49 52 48 43 42 43 44 45 46 51 52 52 53 49 46 46 46 45 45 44 42 44 46 44 41 40 39
12 12 14 16 14 12 10 9 9 10 11 10 9 10 10 10 11 12 12 15 25 33 29 26 29 34 41 42 46 53 56 58 57 56 55 54 54 53 49 44 41 40 38 34 32 35 36 34 33 34 35 35 33 32 33 32 30 32 35 38 41 41 41 42 44 47 50 52 52 50 51 55 52 46 47 48 50 48 45 49 53 53 53 49 46 47 48 47 46 46 45 46 49 46 40 40 40
10 10 12 12 12 11 9 9 8 8 11 11 10 11 10 11 11 13 14 14 22 30 27 28 32 34 40 45 50 58 59 57 58 58 57 53 53 51 48 46 47 46 41 36 33 34 34 33 33 34 35 36 35 33 34 35 36 39 40 43 45 43 42 44 46 48 52 53 52 51 53 57 54 49 49 49 53 51 45 49 54 54 52 48 47 48 49 47 47 46 45 49 51 49 46 45 44
9 9 10 10 10 10 10 10 9 10 11 12 12 12 11 11 12 12 14 12 18 29 28 30 36 38 45 51 54 60 60 58 59 59 56 52 50 48 46 47 50 49 45 42 37 35 33 32 33 35 36 37 36 36 36 38 44 48 48 50 49 45 44 47 49 50 54 54 52 53 55 57 57 52 50 50 53 52 48 50 54 54 51 47 48 49 48 47 47 46 46 51 55 55 54 53 49
10 9 8 10 10 11 12 11 10 11 12 13 13 13 11 11 11 12 13 14 21 30 32 37 42 44 49 53 57 60 61 61 59 57 53 50 48 47 47 47 48 47 45 44 39 36 35 34 35 37 41 40 41 43 41 43 50 53 56 56 50 47 48 50 51 54 56 55 54 54 55 57 58 55 53 54 54 53 52 52 52 52 51 48 47 49 48 47 46 46 49 54 57 57 55 54 52
10 9 8 10 11 12 11 10 10 11 11 12 13 12 11 10 10 11 12 14 22 29 33 41 46 50 54 56 58 59 61 60 56 55 52 49 46 46 48 47 45 45 44 43 40 39 40 41 40 43 47 46 47 50 49 49 52 55 59 56 49 49 53 53 53 56 57 56 56 54 56 60 61 59 58 60 58 56 55 54 51 49 49 48 45 47 48 47 47 48 51 54 56 55 53 52 53
9 9 10 10 10 11 11 10 10 10 10 11 13 12 11 10 9 12 11 11 16 22 29 41 49 53 57 58 57 55 57 56 53 53 51 47 45 46 48 45 43 44 42 42 43 43 45 46 46 47 50 51 52 55 57 54 55 60 61 54 50 52 56 57 57 57 57 58 57 56 59 61 63 63 64 66 65 62 59 55 51 48 49 48 46 46 47 48 49 50 52 55 55 56 58 57 56
10 9 9 11 10 11 11 11 11 11 11 10 11 11 10 9 11 13 11 10 12 16 26 44 52 50 50 54 56 54 53 52 51 52 49 46 45 46 46 44 43 43 42 42 43 45 48 50 50 51 52 56 58 59 61 59 61 65 60 53 53 56 58 60 59 59 59 59 59 59 61 62 64 68 70 72 71 66 60 55 52 50 50 50 48 46 46 48 49 51 52 54 56 60 62 62 61
12 9 8 11 11 11 12 13 12 11 11 10 10 10 9 10 12 12 11 11 13 18 31 44 47 44 46 51 55 54 53 52 52 51 48 45 44 44 42 41 42 40 40 41 43 47 51 53 54 53 54 61 67 66 66 64 66 66 59 57 57 58 60 62 62 61 60 59 60 62 64 65 68 72 73 73 70 65 60 57 54 52 51 50 49 47 46 47 49 52 54 57 59 61 64 63 62
12 10 9 11 12 12 13 13 13 11 10 10 9 10 10 10 11 10 10 11 11 17 29 39 42 46 52 57 59 56 55 55 56 56 51 47 43 41 39 40 41 38 40 42 46 52 55 58 58 55 54 60 67 70 72 70 69 68 63 62 62 62 63 62 63 62 60 60 62 64 65 68 70 73 73 70 66 62 59 57 54 52 50 50 49 48 47 48 49 53 56 58 59 60 63 63 61
11 11 11 11 12 13 12 12 12 10 10 9 8 9 9 10 9 8 10 12 11 15 24 31 35 40 45 52 57 55 56 55 57 59 57 51 45 41 40 40 41 39 41 44 50 58 60 59 58 56 56 60 65 70 75 76 74 71 68 67 67 65 65 65 64 62 59 60 62 65 67 68 71 74 70 63 59 58 57 57 58 57 56 55 54 54 55 55 56 58 60 59 59 60 60 61 61
10 11 11 12 12 13 12 12 10 9 9 8 8 8 8 8 8 8 11 12 11 13 22 27 27 34 38 41 48 52 53 51 51 57 59 53 46 43 41 40 40 39 42 48 57 65 61 55 56 59 63 66 68 69 72 74 72 71 72 71 68 67 68 66 64 62 59 59 62 65 67 68 71 72 66 61 59 59 58 60 62 63 63 63 60 61 64 64 64 64 64 61 62 62 60 61 61
12 11 11 12 12 13 13 11 9 9 9 8 8 8 8 9 8 8 9 10 11 13 22 31 32 38 46 48 52 56 53 50 49 54 58 50 44 42 40 39 39 39 44 52 59 61 56 54 58 63 66 66 65 63 65 68 67 68 75 73 67 66 67 65 62 62 60 61 63 65 67 67 68 70 66 65 65 64 63 64 65 65 67 67 66 68 69 69 68 66 66 64 63 61 61 63 63
14 14 13 13 12 12 12 11 10 9 9 9 9 8 9 9 9 9 8 8 10 12 20 32 34 38 50 57 60 61 57 51 48 52 55 48 42 40 38 38 38 43 50 52 51 50 51 53 56 59 61 60 57 59 61 63 63 65 71 70 66 66 64 63 63 63 63 63 64 65 68 67 67 71 70 69 67 65 63 62 61 62 65 64 64 68 70 72 72 69 67 65 64 62 64 66 65
15 14 14 14 12 11 11 11 10 10 9 9 9 8 9 9 10 9 9 10 10 14 20 29 35 40 55 61 60 62 58 50 48 50 51 46 40 38 37 37 38 45 50 49 46 44 48 53 53 55 56 53 54 57 57 59 63 67 68 66 67 66 63 64 64 64 65 65 65 66 67 67 70 71 73 73 67 63 61 57 57 59 62 64 66 70 72 73 72 69 66 67 68 66 66 68 66
13 13 12 12 11 10 9 9 9 10 9 8 9 9 9 9 9 8 8 10 11 15 21 28 38 45 57 62 59 62 58 51 49 50 47 42 39 37 37 38 40 45 46 46 45 42 45 49 51 54 54 51 51 52 52 57 63 67 68 68 68 66 66 68 68 68 68 68 67 65 66 69 70 71 77 77 67 63 62 57 59 63 66 68 71 73 73 72 71 68 67 68 67 64 66 69 69
12 12 11 10 11 10 9 9 10 9 10 10 11 11 11 9 9 8 8 10 13 19 22 27 37 43 52 59 58 59 58 52 48 49 48 43 40 37 38 39 40 44 43 43 44 44 44 47 51 54 52 51 50 50 53 58 63 68 70 70 70 69 70 72 71 71 70 70 68 66 69 69 69 74 80 77 67 65 65 61 63 66 68 69 71 73 72 70 70 68 67 64 61 63 71 73 73
12 12 12 11 11 10 10 10 11 10 11 11 11 11 10 9 9 9 9 9 13 19 22 26 33 40 47 53 56 58 56 50 46 49 55 51 44 40 39 38 38 41 41 42 44 43 44 47 52 54 52 51 52 56 58 59 64 69 70 72 73 73 73 73 72 70 68 70 69 69 71 68 70 78 77 70 67 66 66 65 67 67 68 69 71 72 70 69 69 67 64 61 59 64 72 72 72
13 13 13 13 11 10 12 11 10 11 12 11 12 11 8 9 11 10 11 12 13 18 21 24 29 36 41 48 58 60 54 49 46 47 53 55 51 44 40 38 37 39 40 44 45 43 44 47 52 55 56 55 56 59 61 63 67 70 71 74 79 77 74 74 70 69 71 72 71 70 69 69 74 76 69 66 69 69 68 68 68 69 70 70 70 69 67 67 69 67 62 60 60 64 70 71 70
14 14 13 13 14 15 16 14 14 15 14 12 12 11 9 12 14 11 13 13 13 18 19 22 26 30 35 46 59 61 55 52 49 43 42 52 56 47 42 40 39 39 41 45 46 44 45 48 53 56 59 60 60 60 64 69 71 71 72 75 82 82 78 75 72 73 76 76 74 70 70 75 77 71 66 67 70 71 70 69 69 70 71 68 66 66 63 62 66 65 59 58 59 62 67 70 70
15 15 14 13 15 20 21 19 20 20 18 16 15 12 10 13 15 14 15 15 16 19 18 20 25 26 30 45 59 63 59 53 50 44 37 46 57 49 42 42 41 40 40 43 46 46 46 49 51 54 59 62 62 62 66 73 72 71 74 77 81 82 79 76 74 74 75 78 77 72 70 73 73 70 69 69 67 70 73 73 71 68 67 65 62 62 60 59 62 62 57 54 57 59 63 66 67
16 17 18 17 17 19 21 21 23 24 21 19 16 13 11 11 15 20 21 18 18 20 18 18 24 28 30 38 51 62 64 58 53 51 40 42 52 48 42 44 42 40 40 43 46 47 51 55 52 52 57 60 62 65 67 72 74 75 80 83 82 80 77 75 74 73 73 78 78 72 69 69 70 71 72 69 65 68 72 73 71 66 62 60 59 58 58 58 58 57 55 53 55 57 61 64 63
18 24 25 25 25 23 22 23 23 24 23 21 18 15 14 12 13 19 23 21 17 17 17 17 19 26 30 28 37 55 67 65 58 54 43 39 46 47 45 46 43 41 40 42 44 46 53 56 52 52 57 60 65 67 66 68 73 78 82 83 81 77 73 73 74 71 70 74 74 72 70 68 68 70 71 69 66 67 69 68 66 62 58 56 56 56 58 57 53 52 52 52 55 54 58 62 60
18 26 25 24 29 27 26 26 24 24 25 25 22 17 15 13 12 16 20 20 19 15 15 16 17 25 32 29 32 48 62 65 62 59 52 44 45 46 45 45 42 40 40 41 42 45 52 54 52 53 55 62 70 66 64 68 72 78 80 76 75 72 68 70 72 68 67 71 71 70 71 71 71 74 74 69 65 64 64 63 60 57 55 54 54 55 58 56 51 52 51 51 53 52 55 59 55
17 21 21 22 26 27 27 26 25 26 25 26 26 20 16 13 13 15 15 16 19 18 15 16 17 23 32 35 36 42 50 56 59 63 62 51 46 45 43 40 38 36 38 39 40 46 54 58 60 61 57 60 67 65 66 71 73 75 76 73 72 71 69 70 71 69 68 69 67 67 70 72 73 75 75 69 63 61 60 60 56 52 53 53 53 54 56 54 50 51 51 49 51 50 54 57 54
16 18 20 22 24 26 28 27 25 26 25 25 25 23 20 16 15 15 13 12 15 18 18 16 16 20 24 30 36 37 39 43 46 54 60 51 43 43 41 39 36 34 35 36 38 48 58 61 64 67 64 64 69 72 75 75 73 73 74 74 74 74 73 72 72 70 68 66 65 66 68 70 71 73 72 66 61 60 59 58 54 50 52 54 52 52 54 53 49 49 50 50 51 51 53 58 56
19 21 23 23 22 22 24 24 25 27 26 26 27 25 22 19 17 16 15 14 13 16 18 16 15 18 19 21 30 34 34 36 34 42 57 56 48 42 38 37 37 36 35 34 38 51 61 63 66 68 69 71 73 76 81 80 77 76 76 77 77 78 77 75 72 70 67 65 64 66 67 67 69 70 67 62 60 59 59 57 53 50 52 52 52 51 53 53 50 51 52 52 53 52 54 57 57
23 23 23 22 20 16 19 23 25 28 28 30 31 27 22 20 19 17 16 16 15 13 15 16 15 17 17 16 23 30 31 32 31 35 48 52 48 42 35 33 36 38 37 37 45 58 66 71 72 71 74 77 74 74 79 82 80 80 78 78 79 79 78 75 72 70 68 67 66 67 67 65 67 68 63 61 61 58 57 55 51 49 50 51 52 52 53 53 52 52 53 53 53 54 57 57 56
22 21 18 17 17 16 20 26 28 28 29 30 33 30 25 21 19 18 18 18 18 16 14 15 15 15 17 15 20 26 26 29 30 30 35 39 40 39 34 31 32 38 43 48 58 67 72 75 72 74 80 82 78 75 77 79 78 77 77 78 81 80 77 74 73 71 71 72 70 67 66 66 68 67 63 64 65 59 55 53 49 49 50 51 52 52 53 53 53 51 51 52 52 54 59 58 56
20 19 17 16 16 15 19 24 26 28 29 28 32 33 28 23 21 21 24 24 22 22 19 17 18 18 18 16 17 21 23 25 28 29 30 31 34 37 33 27 27 38 49 54 61 68 75 76 72 76 80 76 72 71 72 76 74 72 75 77 79 79 75 73 75 75 74 76 74 69 67 68 71 69 64 67 69 60 53 51 50 51 52 52 51 51 51 51 52 51 51 51 49 52 54 53 55
21 17 17 21 24 24 21 19 19 23 25 24 24 28 25 20 18 20 26 28 25 25 23 23 24 22 22 22 21 24 27 30 33 34 32 28 30 33 29 26 31 43 52 57 60 63 69 73 72 74 75 69 66 63 66 74 73 71 75 78 80 81 76 72 75 76 75 76 74 71 69 70 73 71 67 72 74 63 53 51 53 52 51 51 51 50 49 50 51 51 52 50 47 50 51 50 54
20 17 20 27 30 29 25 20 18 19 21 19 17 22 25 20 19 22 26 28 27 26 26 27 27 23 26 29 29 29 29 33 37 38 38 34 29 29 31 35 41 46 50 55 61 64 65 69 71 71 69 67 66 64 67 76 77 73 77 82 85 83 78 74 76 77 76 74 72 72 69 69 74 70 68 74 74 63 54 54 56 52 52 52 51 51 50 50 50 48 49 49 47 49 49 50 53
18 18 24 30 27 23 23 20 19 19 21 19 16 21 25 23 25 30 30 29 29 29 30 31 29 29 32 32 33 33 30 31 33 34 40 44 41 39 40 44 46 46 46 49 56 63 65 66 68 68 66 65 66 65 66 73 79 79 79 83 86 83 79 78 78 79 78 73 71 70 68 70 73 69 68 72 68 59 55 55 56 53 54 55 53 53 52 50 48 47 47 49 48 48 48 49 51
21 20 22 28 25 22 23 20 18 20 20 18 16 19 24 24 24 28 32 33 33 33 34 36 34 33 37 36 36 37 33 30 30 30 38 47 52 54 54 52 50 49 50 49 52 60 65 65 63 64 62 61 61 59 56 57 64 71 72 73 79 81 79 78 79 79 77 73 69 69 69 72 74 71 71 71 66 60 55 54 55 53 55 56 54 55 54 51 49 47 47 48 47 46 47 47 49
23 23 21 24 24 22 22 19 18 20 19 17 16 19 27 24 20 27 34 34 35 34 34 38 38 36 39 42 40 38 37 36 33 34 37 39 41 49 55 56 55 55 56 55 58 67 70 64 60 57 53 52 52 50 49 47 47 58 64 63 69 77 77 77 79 80 77 72 69 69 69 71 74 72 70 70 65 59 55 53 53 51 52 54 54 55 54 52 50 48 47 46 44 45 46 44 46
23 24 23 24 23 24 25 23 22 21 20 18 16 20 29 28 27 35 41 41 40 37 35 37 39 40 41 43 42 43 43 41 38 38 37 35 35 39 46 50 52 55 59 61 69 76 68 56 54 50 43 44 43 42 44 41 38 45 50 52 61 70 73 75 77 79 77 72 68 68 68 70 72 69 68 68 62 55 52 50 48 47 50 53 53 53 52 52 52 50 49 47 44 45 45 43 44
24 23 24 24 23 28 32 29 27 26 25 27 25 25 28 31 39 43 44 46 44 42 42 42 40 40 43 45 44 46 46 42 39 39 39 41 43 44 48 51 51 54 62 66 74 76 62 51 49 42 37 40 39 37 39 37 35 39 39 42 53 61 67 73 75 76 77 74 69 67 70 72 72 70 69 64 56 50 48 45 43 43 46 52 53 52 52 53 53 51 50 49 46 45 44 43 44
30 25 25 25 23 27 32 31 32 34 33 35 36 34 28 34 48 49 45 46 43 42 48 52 51 50 53 56 51 46 46 44 43 43 46 48 48 49 52 53 55 62 70 70 69 65 54 47 43 36 34 37 38 40 40 37 36 38 39 41 47 54 60 68 71 72 75 75 69 67 71 74 74 72 67 58 51 48 47 44 44 45 47 50 52 53 52 52 53 52 51 51 50 47 45 46 47
36 31 26 24 23 25 29 32 36 38 36 35 36 37 36 42 53 52 47 46 42 41 48 57 64 63 61 60 53 49 51 52 53 53 56 56 51 52 56 55 58 68 71 64 59 56 49 43 39 34 34 36 39 42 43 40 39 41 45 47 50 53 56 63 68 68 71 73 69 68 72 73 73 70 63 55 50 48 46 45 46 48 49 49 51 53 54 54 53 52 52 53 51 49 48 47 49
36 36 30 24 22 26 31 33 32 33 34 35 34 35 38 44 51 52 49 50 50 50 52 59 65 63 61 58 54 59 61 58 58 59 61 62 57 59 65 64 65 70 67 57 53 53 49 44 38 34 34 38 42 43 44 46 45 47 51 53 54 56 56 60 66 66 67 70 70 73 74 74 73 69 62 55 51 49 47 46 47 48 49 52 52 53 55 56 55 54 53 53 50 48 48 47 47
31 36 34 29 25 27 32 35 34 32 32 33 33 35 40 45 52 56 55 57 61 60 58 63 64 61 61 59 58 65 67 60 58 59 62 65 62 61 66 68 67 67 64 58 54 52 49 47 44 39 38 42 44 44 47 51 51 53 55 55 56 58 58 62 66 66 67 69 73 76 76 75 73 69 62 56 55 55 51 51 55 52 51 55 55 53 55 55 56 57 56 53 50 48 48 48 48
25 29 34 37 35 31 30 31 32 34 35 35 33 35 46 54 58 60 59 61 64 63 61 65 66 64 62 59 61 69 71 65 62 61 62 63 61 60 61 61 61 61 59 58 57 56 53 50 50 48 49 51 50 49 53 56 56 55 56 56 58 60 62 64 64 65 68 73 78 79 77 76 71 67 64 60 59 59 55 56 63 59 54 54 53 52 55 55 56 60 58 55 54 52 51 50 50
26 25 28 35 39 38 35 32 30 32 35 37 34 37 54 65 62 62 62 63 66 65 66 70 71 70 68 64 67 73 73 68 65 64 63 62 61 60 60 60 60 60 60 60 58 58 58 55 54 55 58 60 59 57 59 60 58 58 58 58 61 65 65 63 63 66 72 79 84 82 78 74 69 67 66 62 63 63 59 60 65 63 58 57 54 51 52 54 57 59 58 56 56 55 54 53 55
30 26 24 27 32 34 36 37 36 33 33 37 39 48 64 68 62 64 66 64 64 63 67 72 73 75 78 74 73 73 70 67 66 66 65 64 63 62 62 63 63 62 64 64 60 59 60 59 58 58 59 61 63 63 62 62 61 60 61 62 65 68 66 63 64 69 76 83 86 82 76 71 68 69 65 63 67 68 64 65 66 63 60 58 56 52 50 50 52 52 54 56 54 52 53 54 56
34 30 25 24 27 31 35 37 38 36 37 43 47 56 68 67 63 69 73 69 66 65 67 72 73 76 80 78 75 73 69 67 68 67 66 66 65 63 62 63 63 63 64 63 61 61 62 63 64 62 59 58 64 68 67 66 65 65 66 68 70 69 67 65 67 70 77 83 85 80 74 70 71 70 65 64 69 69 69 69 68 65 62 59 57 56 53 49 48 48 50 53 51 47 48 49 49